| time (UTC) | temp F | wind direction | speed MPH | gust MPH | rain 1hr in | rain 24hr in | rain mn in | humidity % | barometer mb |
| 20260903011546 | 67 | 56 | 1.0 | 3.0 | 0.00 | 0.00 | 0.00 | 76 | 1017.2 |
| 20260903010044 | 67 | 25 | 0.0 | 2.0 | 0.00 | 0.00 | 0.00 | 77 | 1017.1 |
| 20260903004551 | 66 | 23 | 1.0 | 4.0 | 0.00 | 0.00 | 0.00 | 77 | 1017.0 |
| 20260903003050 | 67 | 23 | 1.0 | 3.0 | 0.00 | 0.00 | 0.00 | 76 | 1016.9 |
| 20260903001541 | 67 | 22 | 0.0 | 2.0 | 0.00 | 0.00 | 0.00 | 75 | 1016.9 |
| 20260903000049 | 67 | 20 | 0.0 | 2.0 | 0.00 | 0.00 | 0.00 | 74 | 1016.9 |
| 20260902234539 | 68 | 20 | 0.0 | 2.0 | 0.00 | 0.00 | 0.00 | 74 | 1016.9 |
| 20260902233042 | 67 | 20 | 0.0 | 2.0 | 0.00 | 0.00 | 0.00 | 76 | 1017.0 |
| 20260902231541 | 67 | 20 | 0.0 | 2.0 | 0.00 | 0.00 | 0.00 | 81 | 1017.0 |
| 20260902230032 | 68 | 20 | 0.0 | 0.0 | 0.00 | 0.00 | 0.00 | 81 | 1017.0 |
| 20260902224534 | 69 | 20 | 0.0 | 0.0 | 0.00 | 0.00 | 0.00 | 81 | 1017.0 |
| 20260902223030 | 68 | 20 | 0.0 | 2.0 | 0.00 | 0.00 | 0.00 | 81 | 1017.1 |
| 20260902221528 | 69 | 20 | 0.0 | 2.0 | 0.00 | 0.00 | 0.00 | 81 | 1017.1 |
| 20260902220027 | 69 | 20 | 0.0 | 2.0 | 0.00 | 0.00 | 0.00 | 82 | 1017.0 |
| 20260902214556 | 68 | 20 | 0.0 | 2.0 | 0.00 | 0.00 | 0.00 | 83 | 1016.9 |
| 20260902213025 | 68 | 20 | 0.0 | 2.0 | 0.00 | 0.00 | 0.00 | 83 | 1016.9 |
| 20260902211529 | 69 | 20 | 0.0 | 2.0 | 0.00 | 0.00 | 0.00 | 83 | 1016.8 |
| 20260902210026 | 70 | 20 | 0.0 | 2.0 | 0.00 | 0.00 | 0.00 | 81 | 1016.6 |
| 20260902204525 | 70 | 20 | 0.0 | 3.0 | 0.00 | 0.00 | 0.00 | 82 | 1016.6 |
| 20260902203024 | 69 | 259 | 0.0 | 2.0 | 0.00 | 0.00 | 0.00 | 83 | 1016.5 |
| 20260902201532 | 70 | 258 | 0.0 | 2.0 | 0.00 | 0.00 | 0.00 | 82 | 1016.4 |
| 20260902200023 | 71 | 258 | 0.0 | 1.0 | 0.00 | 0.00 | 0.00 | 81 | 1016.4 |
| 20260902194535 | 71 | 258 | 0.0 | 1.0 | 0.00 | 0.00 | 0.00 | 80 | 1016.3 |
| 20260902193023 | 72 | 258 | 0.0 | 2.0 | 0.00 | 0.00 | 0.00 | 80 | 1016.2 |
| 20260902191522 | 72 | 258 | 0.0 | 2.0 | 0.00 | 0.00 | 0.00 | 80 | 1016.2 |
| 20260902190021 | 71 | 234 | 1.0 | 2.0 | 0.00 | 0.00 | 0.00 | 81 | 1016.1 |
| 20260902184521 | 72 | 231 | 0.0 | 0.0 | 0.00 | 0.00 | 0.00 | 83 | 1015.7 |
| 20260902183020 | 73 | 231 | 0.0 | 0.0 | 0.00 | 0.00 | 0.00 | 81 | 1015.5 |
| 20260902181519 | 75 | 231 | 0.0 | 0.0 | 0.00 | 0.00 | 0.00 | 78 | 1015.4 |
| 20260902180018 | 77 | 231 | 0.0 | 0.0 | 0.00 | 0.00 | 0.00 | 75 | 1015.3 |
| 20260902174524 | 79 | 231 | 0.0 | 0.0 | 0.00 | 0.00 | 0.00 | 70 | 1015.2 |
| 20260902173018 | 80 | 231 | 0.0 | 0.0 | 0.00 | 0.00 | 0.00 | 63 | 1014.9 |
| 20260902171517 | 81 | 231 | 0.0 | 0.0 | 0.00 | 0.00 | 0.00 | 61 | 1014.8 |
| 20260902170026 | 83 | 231 | 0.0 | 0.0 | 0.00 | 0.00 | 0.00 | 62 | 1014.8 |
| 20260902164523 | 84 | 231 | 0.0 | 0.0 | 0.00 | 0.00 | 0.00 | 54 | 1014.7 |
| 20260902163014 | 87 | 231 | 0.0 | 0.0 | 0.00 | 0.00 | 0.00 | 51 | 1014.9 |
| 20260902161523 | 89 | 231 | 0.0 | 0.0 | 0.00 | 0.00 | 0.00 | 50 | 1014.9 |
| 20260902160013 | 89 | 231 | 0.0 | 0.0 | 0.00 | 0.00 | 0.00 | 44 | 1015.0 |
| 20260902154517 | 87 | 231 | 0.0 | 2.0 | 0.00 | 0.00 | 0.00 | 45 | 1015.0 |
| 20260902153014 | 87 | 231 | 0.0 | 2.0 | 0.00 | 0.00 | 0.00 | 48 | 1015.1 |
| 20260902151510 | 86 | 231 | 0.0 | 3.0 | 0.00 | 0.00 | 0.00 | 45 | 1015.2 |
| 20260902150018 | 87 | 251 | 0.0 | 2.0 | 0.00 | 0.00 | 0.00 | 50 | 1015.3 |
| 20260902144509 | 87 | 224 | 0.0 | 2.0 | 0.00 | 0.00 | 0.00 | 46 | 1015.3 |
| 20260902143007 | 86 | 226 | 0.0 | 3.0 | 0.00 | 0.00 | 0.00 | 45 | 1015.4 |
| 20260902141504 | 87 | 215 | 0.0 | 3.0 | 0.00 | 0.00 | 0.00 | 45 | 1015.5 |
| 20260902140004 | 88 | 257 | 0.0 | 1.0 | 0.00 | 0.00 | 0.00 | 46 | 1015.6 |
| 20260902134504 | 89 | 257 | 0.0 | 3.0 | 0.00 | 0.00 | 0.00 | 44 | 1015.7 |
| 20260902133106 | 89 | 123 | 0.0 | 2.0 | 0.00 | 0.00 | 0.00 | 42 | 1015.8 |
| 20260902131606 | 88 | 110 | 0.0 | 2.0 | 0.00 | 0.00 | 0.00 | 41 | 1016.0 |
| 20260902124557 | 86 | 168 | 0.0 | 2.0 | 0.00 | 0.00 | 0.00 | 43 | 1016.2 |
| 20260902123057 | 88 | 85 | 0.0 | 0.0 | 0.00 | 0.00 | 0.00 | 43 | 1016.3 |
| 20260902121606 | 87 | 85 | 0.0 | 2.0 | 0.00 | 0.00 | 0.00 | 41 | 1016.3 |
| 20260902120053 | 87 | 60 | 1.0 | 4.0 | 0.00 | 0.00 | 0.00 | 46 | 1016.4 |
| 20260902114553 | 86 | 46 | 1.0 | 3.0 | 0.00 | 0.00 | 0.00 | 42 | 1016.7 |
| 20260902113057 | 86 | 80 | 1.0 | 5.0 | 0.00 | 0.00 | 0.00 | 46 | 1016.7 |
| 20260902111548 | 87 | 61 | 0.0 | 4.0 | 0.00 | 0.00 | 0.00 | 46 | 1016.9 |
| 20260902110047 | 85 | 39 | 0.0 | 4.0 | 0.00 | 0.00 | 0.00 | 44 | 1017.2 |
| 20260902104601 | 85 | 9 | 1.0 | 4.0 | 0.00 | 0.00 | 0.00 | 50 | 1017.2 |
| 20260902103043 | 84 | 46 | 1.0 | 6.0 | 0.00 | 0.00 | 0.00 | 45 | 1017.3 |
| 20260902101549 | 84 | 51 | 2.0 | 7.0 | 0.00 | 0.00 | 0.00 | 46 | 1017.5 |
| 20260902100038 | 83 | 345 | 2.0 | 9.0 | 0.00 | 0.00 | 0.00 | 51 | 1017.5 |
| 20260902094535 | 83 | 28 | 3.0 | 7.0 | 0.00 | 0.00 | 0.00 | 51 | 1017.7 |
| 20260902093030 | 82 | 22 | 4.0 | 9.0 | 0.00 | 0.00 | 0.00 | 51 | 1017.7 |
| 20260902091535 | 82 | 25 | 4.0 | 9.0 | 0.00 | 0.00 | 0.00 | 51 | 1017.6 |
| 20260902090024 | 82 | 37 | 5.0 | 10.0 | 0.00 | 0.00 | 0.00 | 51 | 1017.7 |
| 20260902084523 | 81 | 60 | 4.0 | 9.0 | 0.00 | 0.00 | 0.00 | 53 | 1017.8 |
| 20260902083018 | 81 | 39 | 2.0 | 5.0 | 0.00 | 0.00 | 0.00 | 57 | 1017.8 |
| 20260902081521 | 80 | 62 | 2.0 | 4.0 | 0.00 | 0.00 | 0.00 | 61 | 1017.7 |
| 20260902080010 | 79 | 14 | 2.0 | 5.0 | 0.00 | 0.00 | 0.00 | 61 | 1017.7 |
| 20260902074506 | 78 | 17 | 3.0 | 7.0 | 0.00 | 0.00 | 0.00 | 62 | 1017.6 |
| 20260902073002 | 77 | 36 | 2.0 | 5.0 | 0.00 | 0.00 | 0.00 | 64 | 1017.6 |
| 20260902071558 | 76 | 28 | 2.0 | 6.0 | 0.00 | 0.00 | 0.00 | 66 | 1017.5 |
| 20260902070054 | 75 | 23 | 2.0 | 5.0 | 0.00 | 0.00 | 0.00 | 67 | 1017.4 |
| 20260902064552 | 73 | 23 | 1.0 | 6.0 | 0.00 | 0.00 | 0.00 | 71 | 1017.4 |
| 20260902063045 | 72 | 28 | 2.0 | 4.0 | 0.00 | 0.00 | 0.00 | 70 | 1017.4 |
| 20260902061547 | 71 | 11 | 1.0 | 3.0 | 0.00 | 0.00 | 0.00 | 73 | 1017.4 |
| 20260902060037 | 70 | 24 | 2.0 | 3.0 | 0.00 | 0.00 | 0.00 | 74 | 1017.3 |
| 20260902054538 | 68 | 26 | 2.0 | 3.0 | 0.00 | 0.00 | 0.00 | 76 | 1017.2 |
| 20260902053032 | 68 | 26 | 2.0 | 4.0 | 0.00 | 0.00 | 0.00 | 78 | 1017.1 |
| 20260902051529 | 66 | 34 | 2.0 | 4.0 | 0.00 | 0.00 | 0.00 | 79 | 1017.0 |
| 20260902050028 | 66 | 34 | 1.0 | 3.0 | 0.00 | 0.00 | 0.00 | 80 | 1017.0 |
| 20260902044530 | 65 | 34 | 0.0 | 3.0 | 0.00 | 0.00 | 0.00 | 80 | 1017.0 |
| 20260902043033 | 66 | 34 | 0.0 | 2.0 | 0.00 | 0.00 | 0.00 | 80 | 1017.1 |
| 20260902041525 | 66 | 34 | 1.0 | 4.0 | 0.00 | 0.00 | 0.00 | 79 | 1016.9 |
| 20260902040024 | 66 | 34 | 0.0 | 4.0 | 0.00 | 0.00 | 0.00 | 80 | 1016.8 |
| 20260902034522 | 65 | 34 | 1.0 | 3.0 | 0.00 | 0.00 | 0.00 | 80 | 1016.9 |
| 20260902033020 | 66 | 34 | 1.0 | 3.0 | 0.00 | 0.00 | 0.00 | 79 | 1017.0 |
| 20260902031532 | 67 | 34 | 0.0 | 4.0 | 0.00 | 0.00 | 0.00 | 77 | 1017.0 |
| 20260902030018 | 67 | 18 | 3.0 | 5.0 | 0.00 | 0.00 | 0.00 | 77 | 1016.9 |
| 20260902024517 | 67 | 20 | 2.0 | 4.0 | 0.00 | 0.00 | 0.00 | 76 | 1016.8 |
| 20260902023028 | 68 | 19 | 1.0 | 3.0 | 0.00 | 0.00 | 0.00 | 75 | 1016.8 |
| 20260902021514 | 68 | 19 | 2.0 | 4.0 | 0.00 | 0.00 | 0.00 | 75 | 1016.9 |
| 20260902020023 | 68 | 19 | 2.0 | 3.0 | 0.00 | 0.00 | 0.00 | 75 | 1016.9 |
| 20260902014520 | 68 | 19 | 2.0 | 3.0 | 0.00 | 0.01 | 0.00 | 75 | 1016.9 |
| 20260902013012 | 68 | 19 | 2.0 | 4.0 | 0.00 | 0.01 | 0.00 | 74 | 1016.8 |